Starlink 4415

operational
NORAD ID: 53465 Int'l Des: 2022-099 Owner: SPXS Country: US Constellation: starlink
LEOCIRCULARRETROGRADESSO

About Starlink 4415

Description loading...

Live Position

Loading 3D Globe...

Upcoming Passes

Altitude History

Altitude vs Time

uPlot chart will show altitude changes over time

Two-Line Element Set

1 53465U 22099A 25305.29130356 .00000644 00000-0 48851-4 0 9993
2 53465 97.6043 64.6543 0001041 83.4851 276.6494 15.05650340176716
Epoch: Nov 1, 2025 • Age: 25 hours

Current Status

Altitude 576.7 km
Velocity 7.57 km/s
Sub-Earth Point -71.10°S, 60.5°E
Launch Date Aug 12, 2022
Age 3.2 years
Type internet

Technical Details

Classification Payload
Mass 300.00 kg
Dry Mass 275.00 kg
Total Mass 300.00 kg
Length 0.20 m
Diameter 2.80 m
Span 9.00 m
Shape Box + pan
Manufacturer SPXS
Bus Type Starlink
Phase Status In Orbit
Owner/State SPXS/US

Large Constellations

Loading constellations...